Find Starlink 30784

NORAD ID: 58156 Int'l Des: 2023-166 Owner: SPXS Country: US Constellation: starlink operational
LEOCIRCULAR

实时位置

正在加载3D地球...

关于 Starlink 30784

正在加载描述...

即将过境

Passes for default location (London). Set your location on the main map for personalized predictions.

高度历史

Loading altitude history...

两行轨道根数

1 58156U 23166G 26124.78821541 -.00000412 00000-0 -17763-5 0 9992
2 58156 53.1621 319.3537 0001201 98.3163 261.7974 15.30189286141612
Epoch: May 4, 2026 • Age: 12 hours

当前状态

高度 492.5 km
速度 7.62 km/s
星下点 -48.31°S, 133.96°W
发射日期 Oct 29, 2023
运行时间 2.5 years
类型 internet

技术详情

分类 Payload
质量 730.00 kg
干质量 700.00 kg
总质量 730.00 kg
长度 0.30 m
直径 4.10 m
跨度 29.00 m
形状 Box + pan
制造商 SPXS
平台类型 Starlink V2M
阶段状态 In Orbit
所有者/国家 SPXS/US

Most Searched